CZ-6A DEB, 61154

Orbit data source: Space-Track

CZ-6A DEB, 61154 is space debris in LEO originally from a launch on Tue, 06 Aug 2024 UTC launched from the Taiyaun Space Center, China (TSC). Debris objects in space refer to the collection of defunct objects orbiting the Earth. Examples of debris include non-operational satellites, rocket bodies, and fragments generated from explosions, collisions, or faulty payload assembly.

Loading next visibility...
Identifier
61154, 2024-140QY
Orbit
LEO
Country
Flag of CNCN / PRC
Related business
Manufacturer
SAST
Mission
Spacecraft
Bus & Motor
Unknown
Mass
Unknown
Launch date (UTC)
2024-08-06 (1 year ago)
Launch vehicle
Unknown
Launch site
Taiyaun Space Center, China (TSC)
Object type
Payload
Rocket body
Debris
Shape & HBR
Unknown shape, 0.1 m
Radar Cross Section
Small (<0.1 m²)

Expand to show TLE details & history
Last TLE update: 12 hours ago

TLE from 12 hours ago
0 CZ-6A DEB
1 61154U 24140QY  25353.89417495  .00002830  00000-0  48113-3 0  9996
2 61154  89.2749 308.1390 0133884 161.9964 198.6062 14.63061711 70723
Epoch: 2025-12-19T21:27Z
TLE epoch observation values (Epoch: 2025-12-19T21:27:36.715Z)
Latitude
0.00004°
Longitude
-102.49276°
Altitude
776.168 km
Speed
7.418 km/s
True Right ascension
20h 32m 33s
True Declination
0° 00' 00"
Sunlit
Object was in daylight at epoch
Visualization orbit readout
Latitude
Unknown
Longitude
Unknown
Altitude
Unknown
Speed
Unknown
Apparent Right ascension
Unknown
Apparent Declination
Unknown
Sunlit
N/A
Visualization observer readout
Local Sidereal Time
08:15:23
Azimuth
Unknown
Elevation
Unknown
Doppler factor
Unknown
Orbital elements
Apogee altitude
774.693 km
Perigee altitude
585.693 km
Semi-major axis
7,058.33 km
Eccentricity
0.01339
Inclination
89.2749°
RAAN
308.139°
Arg. of periapsis
161.9964°
True anomaly
198.12435°
Mean anomaly
198.6062°
Eccentric anomaly
198.36452°
Mean motion
3.66008 °/min
Orbital period
98.36 mins
BSTAR
0.00048113
Loading maneuver chart data...
Computing Atmospheric mass density...

Documentation

Showing up to 5 results
|